Torna al catalogo

SL-12 R/B

AUX MOTOR

AttivoHEO
NORAD 14277·ROCKET BODY·🇷🇺 Russia

Lanciato Aug 10, 1983 da Baikonur Cosmodrome

Loading…

Prossimi Passaggi (prossime 24 ore)

TLE

AggiornatoSource: Space-Track

Epoca: Sep 14, 2026, 10:15 UTC

1 14277U 83084G   26257.42745788  .00007026  00000-0  17695-2 0  9996
2 14277  51.9721 307.1031 5393580 199.1838 128.3319  4.95447048724099

Traccia SL-12 R/B in tempo reale con AllMySat

Download on the App Store